This demonstration page uses our WeatherBlox Daily Observations layout. Learn more.

39.51506, -84.39828

Hourly Observations for November 15, 2019

Temp ( °F °C ) Dew Point ( °F °C ) Humidity (%) Winds ( mph kmh ) Pressure ( in mb ) Visibility ( mi km ) Precip ( " mm )
12:15 am 00:15 Clear with Mist and Fog 24 -4.2 24 -4.7 96 96 Calm 30.38 1029 7 11.26538 0 0
12:35 am 00:35 Clear with Mist and Fog 23 -4.8 22 -5.4 96 96 Calm 30.38 1029 3 4.82802 0 0
12:55 am 00:55 Clear with Mist and Fog 24 -4.4 23 -4.9 96 96 Calm 30.37 1028 7 11.26538 0 0
1:15 am 01:15 Clear 24 -4.5 23 -5 96 96 Calm 30.37 1028 7 11.26538 0 0
1:35 am 01:35 Clear 23 -4.9 22 -5.5 96 96 Calm 30.37 1028 7 11.26538 0 0
1:55 am 01:55 Clear with Mist and Fog 24 -4.7 22 -5.3 96 96 Calm 30.37 1028 7 11.26538 0 0
2:15 am 02:15 Clear with Mist and Fog 21 -5.9 20 -6.5 96 96 Calm 30.37 1029 5 8.0467 0 0
2:35 am 02:35 Clear with Mist and Fog 22 -5.5 21 -6 96 96 Calm 30.37 1028 5 8.0467 0 0
2:55 am 02:55 Clear with Mist and Fog 23 -4.8 22 -5.3 96 96 Calm 30.37 1028 2.5 4.02335 0 0
3:15 am 03:15 Clear with Mist and Fog 22 -5.7 21 -6.3 96 96 Calm 30.37 1028 5 8.0467 0 0
3:35 am 03:35 Clear with Mist and Fog 24 -4.7 23 -5.2 96 96 Calm 30.38 1029 7 11.26538 0 0
3:55 am 03:55 Clear 21 -6.3 19 -7.1 94 94 Calm 30.38 1029 7 11.26538 0 0
4:15 am 04:15 Clear with Mist and Fog 20 -6.4 19 -7.2 94 94 Calm 30.38 1029 5 8.0467 0 0
4:35 am 04:35 Clear 21 -5.9 20 -6.6 95 95 Calm 30.39 1029 7 11.26538 0 0
4:55 am 04:55 Clear 22 -5.5 21 -6.2 95 95 Calm 30.41 1030 7 11.26538 0 0
5:15 am 05:15 Clear with Mist and Fog 24 -4.4 23 -5 96 96 Calm 30.41 1030 7 11.26538 0 0
5:35 am 05:35 Clear with Mist and Fog 23 -5.1 22 -5.6 96 96 Calm 30.41 1030 5 8.0467 0 0
5:55 am 05:55 Clear with Mist and Fog 22 -5.7 20 -6.5 94 94 Calm 30.41 1030 3 4.82802 0 0
6:15 am 06:15 Clear with Mist and Fog 22 -5.7 21 -6.3 96 96 Calm 30.41 1030 2.5 4.02335 0 0
6:35 am 06:35 Clear with Mist and Fog 21 -5.9 20 -6.6 95 95 Calm 30.42 1030 2 3.21868 0 0
6:55 am 06:55 Partly Cloudy with Mist and Fog 20 -6.7 19 -7.4 95 95 Calm 30.42 1030 2 3.21868 0 0
7:15 am 07:15 Cloudy with Mist and Fog 21 -6.1 20 -6.8 95 95 Calm 30.42 1030 2.5 4.02335 0 0
7:35 am 07:35 Cloudy with Mist and Fog 21 -6 20 -6.7 95 95 Calm 30.42 1030 2.5 4.02335 0 0
7:55 am 07:55 Mostly Cloudy with Mist and Fog 22 -5.3 21 -6 95 95 Calm 30.43 1030 2.5 4.02335 0 0
8:15 am 08:15 Cloudy with Mist and Fog 24 -4.5 23 -5 96 96 Calm 30.43 1030 3 4.82802 0 0
8:35 am 08:35 Cloudy with Mist and Fog 26 -3.6 25 -4.1 96 96 Calm 30.43 1030 7 11.26538 0 0
8:55 am 08:55 Cloudy 26 -3.4 25 -4 96 96 Calm 30.43 1030 7 11.26538 0 0
9:15 am 09:15 Mostly Cloudy 27 -2.7 25 -4.1 90 90 Calm 30.42 1030 7 11.26538 0 0
9:35 am 09:35 Partly Cloudy 28 -2 25 -4.1 86 86 Calm 30.42 1030 7 11.26538 0 0
9:55 am 09:55 Mostly Cloudy 29 -1.6 25 -3.9 85 85 Calm 30.43 1030 7 11.26538 0 0
10:15 am 10:15 Mostly Cloudy 30 -1.1 25 -4.1 80 80 Calm 30.43 1030 7 11.26538 0 0
10:35 am 10:35 Mostly Cloudy 31 -0.7 25 -4 79 79 Calm 30.42 1030 10 16.0934 0 0
10:55 am 10:55 Sunny 32 -0.2 26 -3.6 78 78 Calm 30.42 1030 7 11.26538 0 0
11:15 am 11:15 Sunny 33 0.7 26 -3.6 73 73 Calm 30.41 1030 7 11.26538 0 0
11:35 am 11:35 Sunny 34 1.3 26 -3.6 70 70 Calm 30.41 1030 7 11.26538 0 0
11:55 am 11:55 Sunny 35 1.6 25 -3.7 68 68 Calm 30.4 1029 10 16.0934 0 0
12:15 pm 12:15 Sunny 36 2 27 -3 70 70 S 6 9 30.38 1029 10 16.0934 0 0
12:35 pm 12:35 Sunny 36 2.3 26 -3.3 67 67 SSE 6 9 30.38 1029 10 16.0934 0 0
12:55 pm 12:55 Sunny 37 3 27 -2.8 66 66 SSE 6 9 30.37 1028 10 16.0934 0 0
1:15 pm 13:15 Sunny 38 3.6 27 -2.8 63 63 SE 3 6 30.37 1028 10 16.0934 0 0
1:35 pm 13:35 Sunny 40 4.2 27 -2.8 61 61 SE 3 6 30.35 1028 10 16.0934 0 0
1:55 pm 13:55 Sunny 41 4.8 27 -2.8 58 58 ENE 6 9 30.35 1028 10 16.0934 0 0
2:15 pm 14:15 Sunny 42 5.3 26 -3.1 55 55 Calm 30.35 1028 10 16.0934 0 0
2:35 pm 14:35 Sunny 43 5.9 24 -4.6 47 47 N 3 6 30.35 1028 10 16.0934 0 0
2:55 pm 14:55 Sunny 43 6.3 25 -4 48 48 Calm 30.35 1028 10 16.0934 0 0
3:15 pm 15:15 Sunny 44 6.4 25 -3.7 49 49 NNE 5 7 30.35 1028 10 16.0934 0 0
3:35 pm 15:35 Sunny 44 6.6 26 -3.4 49 49 Calm 30.35 1028 10 16.0934 0 0
3:55 pm 15:55 Sunny 44 6.5 26 -3.2 50 50 N 3 6 30.34 1027 10 16.0934 0 0
4:15 pm 16:15 Sunny 43 6.3 26 -3.3 51 51 Calm 30.35 1028 10 16.0934 0 0
4:35 pm 16:35 Sunny 43 5.9 26 -3.4 52 52 N 6 9 30.35 1028 10 16.0934 0 0
4:55 pm 16:55 Sunny 41 5.2 26 -3.1 55 55 N 6 9 30.35 1028 10 16.0934 0 0
5:15 pm 17:15 Sunny 40 4.5 27 -3 59 59 NNW 5 7 30.35 1028 10 16.0934 0 0
5:35 pm 17:35 Clear 40 4.5 27 -2.9 59 59 Calm 30.35 1028 10 16.0934 0 0
5:55 pm 17:55 Clear 35 1.5 28 -2.1 77 77 Calm 30.36 1028 10 16.0934 0 0
6:15 pm 18:15 Clear 32 -0.1 28 -2.2 86 86 Calm 30.38 1029 10 16.0934 0 0
6:35 pm 18:35 Clear 30 -1.1 26 -3.3 85 85 N 3 6 30.38 1029 10 16.0934 0 0
6:55 pm 18:55 Clear 28 -2 25 -3.7 88 88 N 3 6 30.38 1029 7 11.26538 0 0
7:15 pm 19:15 Clear 30 -1 26 -3.1 86 86 N 3 6 30.38 1029 10 16.0934 0 0
7:35 pm 19:35 Clear 30 -1 26 -3.2 85 85 N 6 9 30.38 1029 10 16.0934 0 0
7:55 pm 19:55 Clear 31 -0.5 26 -3.1 83 83 N 6 9 30.38 1029 10 16.0934 0 0
8:15 pm 20:15 Clear 33 0.3 26 -3.3 77 77 N 7 11 30.37 1029 10 16.0934 0 0
8:35 pm 20:35 Clear 33 0.3 26 -3.3 77 77 N 6 9 30.37 1029 10 16.0934 0 0
8:55 pm 20:55 Clear 33 0.3 27 -3 79 79 N 8 13 30.38 1029 10 16.0934 0 0
9:15 pm 21:15 Clear 33 0.4 27 -2.9 79 79 N 7 11 30.38 1029 10 16.0934 0 0
9:35 pm 21:35 Clear 32 0.1 27 -3 80 80 N 7 11 30.41 1030 7 11.26538 0 0
9:55 pm 21:55 Clear 31 -0.5 26 -3.2 82 82 NNE 7 11 30.41 1030 7 11.26538 0 0
10:15 pm 22:15 Clear 31 -0.5 26 -3.2 82 82 NNE 7 11 30.42 1030 7 11.26538 0 0
10:35 pm 22:35 Clear 31 -0.7 26 -3.3 83 83 NE 6 9 30.42 1030 7 11.26538 0 0
10:55 pm 22:55 Partly Cloudy with Mist and Fog 30 -1 26 -3.4 84 84 NNE 6 9 30.43 1030 7 11.26538 0 0
11:15 pm 23:15 Cloudy with Mist and Fog 31 -0.6 27 -2.9 85 85 N 7 11 30.43 1030 7 11.26538 0 0
11:35 pm 23:35 Cloudy with Haze 32 -0.2 27 -2.6 84 84 NE 7 11 30.43 1030 7 11.26538 0 0
11:55 pm 23:55 Cloudy with Haze 32 0.2 28 -2.5 82 82 NE 8 13 30.42 1030 7 11.26538 0 0

Powered by AerisWeather